GW2918 Weather Reports


time (UTC)temp
F
wind
direction
speed
knots
gust
knots
rain 1hr
in
rain 24hr
in
rain mn
in
humidity
%
barometer
mb
20260503223322 52 248 2.6 3.5 0.00 0.00 0.00 47 1011.1
20260503222322 53 331 1.7 4.3 0.00 0.00 0.00 47 1011.1
20260503221319 53 19 3.5 3.5 0.00 0.00 0.00 45 1011.2
20260503220317 54 273 4.3 6.1 0.00 0.00 0.00 44 1011.0
20260503215317 53 292 3.5 3.5 0.00 0.00 0.00 45 1011.2
20260503214312 52 257 4.3 6.1 0.00 0.00 0.00 45 1011.2
20260503213307 52 355 0.9 5.2 0.00 0.00 0.00 46 1011.1
20260503212301 53 0 1.7 4.3 0.00 0.00 0.00 46 1011.1
20260503211301 53 279 3.5 7.8 0.00 0.00 0.00 46 1011.0
20260503210259 53 241 1.7 7.0 0.00 0.00 0.00 46 1011.0
20260503205256 52 311 5.2 7.0 0.00 0.00 0.00 45 1010.8
20260503204256 53 231 1.7 11.3 0.00 0.00 0.00 46 1010.9
20260503203251 52 279 6.1 7.8 0.00 0.00 0.00 45 1011.1
20260503202246 52 312 1.7 6.1 0.00 0.00 0.00 44 1011.1
20260503201247 52 322 0.0 9.6 0.00 0.00 0.00 44 1011.1
20260503200245 53 15 1.7 4.3 0.00 0.00 0.00 45 1011.0
20260503195245 53 138 1.7 4.3 0.00 0.00 0.00 44 1011.5
20260503194244 53 329 5.2 12.2 0.00 0.00 0.00 42 1011.3
20260503193243 53 338 0.0 10.4 0.00 0.00 0.00 44 1011.5
20260503192239 52 345 3.5 10.4 0.00 0.00 0.00 42 1011.7
20260503191234 55 345 1.7 4.3 0.00 0.00 0.00 43 1011.4
20260503190233 55 234 1.7 11.3 0.00 0.00 0.00 46 1011.7
20260503185232 52 236 4.3 7.8 0.00 0.00 0.00 40 1011.8
20260503184229 52 167 1.7 15.6 0.00 0.00 0.00 43 1011.7
20260503183228 52 320 3.5 10.4 0.00 0.00 0.00 41 1011.9
20260503182225 52 284 5.2 9.6 0.00 0.00 0.00 39 1011.8
20260503181224 53 162 0.9 8.7 0.00 0.00 0.00 42 1012.1
20260503180219 53 103 0.9 13.0 0.00 0.00 0.00 40 1012.0
20260503175219 52 263 4.3 11.3 0.00 0.00 0.00 41 1012.3
20260503174218 51 258 3.5 7.0 0.00 0.00 0.00 42 1012.4
20260503173215 49 271 3.5 10.4 0.00 0.00 0.00 44 1012.6
20260503172215 50 0 2.6 9.6 0.00 0.00 0.00 43 1012.6
20260503171214 50 298 4.3 6.1 0.00 0.00 0.00 45 1012.7
20260503170214 49 313 4.3 9.6 0.00 0.00 0.00 45 1012.8
20260503160159 46 352 4.3 11.3 0.00 0.00 0.00 49 1013.2
20260503150142 43 341 6.1 9.6 0.00 0.00 0.00 50 1013.7
20260503140135 42 345 1.7 10.4 0.00 0.00 0.00 55 1013.6
20260503131128 40 0 4.3 9.6 0.00 0.00 0.00 58 1013.7
20260503130123 39 351 2.6 8.7 0.00 0.00 0.00 57 1013.8
20260503120111 38 324 1.7 5.2 0.00 0.00 0.00 74 1013.6
20260503081024 32 29 3.5 4.3 0.00 0.00 0.00 86 1012.5
20260503072014 33 15 3.5 3.5 0.00 0.00 0.00 83 1012.6
20260503071014 34 38 5.2 5.2 0.00 0.00 0.00 82 1012.6
20260503054951 35 35 2.6 3.5 0.00 0.00 0.00 83 1012.7
20260503053950 35 31 3.5 3.5 0.00 0.00 0.00 82 1012.6
20260503052950 35 39 2.6 4.3 0.00 0.00 0.00 81 1013.0
20260503051950 36 38 3.5 4.3 0.00 0.00 0.00 81 1013.3
20260503050949 36 8 3.5 7.0 0.00 0.00 0.00 78 1013.0
20260503045948 37 40 2.6 7.0 0.00 0.00 0.00 78 1013.2
20260503044948 37 31 3.5 7.0 0.00 0.00 0.00 78 1013.2
20260503043943 37 20 5.2 7.0 0.00 0.00 0.00 77 1013.2
20260503042941 37 19 4.3 5.2 0.00 0.00 0.00 77 1013.5
20260503041940 37 9 5.2 6.1 0.00 0.00 0.00 76 1013.4
20260503040940 37 20 3.5 5.2 0.00 0.00 0.00 76 1013.5
20260503035940 38 21 4.3 7.0 0.00 0.01 0.01 75 1013.6
20260503034935 38 24 4.3 4.3 0.00 0.01 0.01 76 1013.7
20260503033935 38 26 4.3 5.2 0.00 0.01 0.01 77 1013.5
20260503032930 38 36 3.5 7.8 0.00 0.01 0.01 76 1013.5
20260503031926 38 337 3.5 6.1 0.00 0.01 0.01 76 1013.7
20260503030926 38 7 3.5 5.2 0.00 0.01 0.01 75 1013.7
20260503025925 38 17 3.5 6.1 0.00 0.01 0.01 74 1013.6
20260503024926 39 17 5.2 7.0 0.00 0.01 0.01 72 1013.8
20260503023925 39 17 4.3 9.6 0.00 0.01 0.01 71 1013.5
20260503022925 39 12 6.1 7.0 0.00 0.01 0.01 70 1013.6
20260503021921 39 29 7.0 7.8 0.00 0.01 0.01 69 1013.8
20260503020921 40 33 6.1 13.0 0.00 0.01 0.01 67 1013.6
20260503015921 40 22 3.5 5.2 0.00 0.01 0.01 65 1013.5
20260503014920 40 8 3.5 5.2 0.00 0.01 0.01 65 1013.2
20260503013915 41 20 3.5 7.0 0.00 0.01 0.01 64 1013.4
20260503012915 41 344 5.2 7.0 0.00 0.01 0.01 62 1013.3
20260503011915 41 3 5.2 7.0 0.00 0.01 0.01 62 1013.1
20260503010915 41 1 3.5 6.1 0.00 0.01 0.01 65 1013.3
20260503005914 41 12 3.5 7.0 0.00 0.01 0.01 63 1013.0
20260503004914 41 44 3.5 5.2 0.00 0.01 0.01 64 1013.1
20260503003909 41 354 2.6 7.0 0.00 0.01 0.01 65 1012.7
20260503002908 41 32 2.6 3.5 0.00 0.01 0.01 68 1012.7
20260503001908 41 23 1.7 3.5 0.00 0.01 0.01 66 1012.8
20260503000902 41 0 1.7 4.3 0.00 0.01 0.01 66 1012.7
20260502235902 42 16 2.6 4.3 0.00 0.01 0.01 66 1012.6
20260502234902 42 55 0.9 3.5 0.00 0.01 0.01 64 1012.7
20260502233901 42 60 1.7 2.6 0.00 0.01 0.01 67 1012.8
20260502232900 42 28 2.6 2.6 0.00 0.01 0.01 65 1012.8
20260502231859 42 21 1.7 4.3 0.00 0.01 0.01 63 1012.6
20260502230855 43 136 0.9 3.5 0.00 0.01 0.01 65 1012.7
20260502225855 43 28 2.6 3.5 0.00 0.01 0.01 62 1012.7
20260502224855 43 243 1.7 3.5 0.00 0.01 0.01 63 1012.6